Regional Weather Roundup
Issued by NWS Sterling, VA

Home | Current Version | Previous Version | Graphics & Text | Print | Product List | Glossary On
Versions: 1 2 3 4 5 6 7 8 9 10 11 12 13 14 15 16 17 18 19 20 21 22 23 24 25 26 27
000
ASUS41 KLWX 201711
RWRLWX

REGIONAL WEATHER ROUNDUP
NATIONAL WEATHER SERVICE BALTIMORE MD/WASHINGTON DC
100 PM EDT THU JUL 20 2017

Note: "FAIR" indicates few or no clouds below 12,000 feet
with no significant weather and/or obstructions to visibility.
 TC=TEMPERATURE CELSIUS

 * =Non NWS site. Station does not report precipitation (e.g. rain,
    snow, etc.), thunder, or fog.

DCZ001-MDZ009-015-VAZ040>042-051-053>054-201800-
WASHINGTON METRO

CITY           SKY/WX    TMP DP  RH WIND       PRES   REMARKS
WASHINGTON NAT MOSUNNY   95  70  44 VRB7      30.00F HX 101
DULLES         PTSUNNY   91  70  49 W7        30.01F HX  96
ANDREWS AFB    MOSUNNY   94  69  44 W8        30.00F HX  99
FT BELVOIR     SUNNY     95  70  43 NW8       30.00F HX 100
QUANTICO       PTSUNNY   91  78  65 S7        30.01F HX 106
COLLEGE PARK*  SUNNY     93  69  44 W6        29.99F HX  98
LEESBURG*      SUNNY     93  73  52 W5        30.03S HX 102
MANASSAS*      SUNNY     93  72  50 VRB6      30.01F HX 101
GAITHERSBURG*  SUNNY     89  71  55 VRB3      30.03F HX  95

$$

MDZ006>007-011-014-201800-
BALTIMORE METRO

CITY           SKY/WX    TMP DP  RH WIND       PRES   REMARKS
BWI AIRPORT    PTSUNNY   95  69  42 NW13      29.98F HX 100
MD SCIENCE CTR   N/A     96  68  39 MISG      29.98F HX 101
MARTIN STATE   PTSUNNY   91  79  66 SE8       29.99F HX 107
ANNAPOLIS      MOSUNNY   85  82  91 SE8       29.98F HX 102
FORT MEADE*      N/A     93  70  46 NW6       30.02F HX  99

$$

MDZ012-015-019>023-201800-
MARYLAND EASTERN SHORE

CITY           SKY/WX    TMP DP  RH WIND       PRES   REMARKS
OCEAN CITY     MOSUNNY   85  78  80 S9        29.99F HX  96
SALISBURY      SUNNY     91  72  52 SW6       29.99F HX  98
BAY BRIDGE AP* SUNNY     91  73  55 SW3       29.99F HX 100
CAMBRIDGE*     MOSUNNY   93  75  55 W5G14     29.99F HX 104
EASTON*        MOSUNNY   93  73  52 NW8       30.03F HX 102

$$

MDZ017>025-201800-
SOUTHERN MARYLAND

CITY           SKY/WX    TMP DP  RH WIND       PRES   REMARKS
PATUXENT RIVER CLOUDY    90  78  68 SE9       29.99F HX 104
ST INIGOES     CLOUDY    90  76  63 S3        29.99F HX 101
LEONARDTOWN*   MOSUNNY  N/A N/A N/A W5        30.02F

$$

MDZ003>005-201800-
NORTH CENTRAL MARYLAND

CITY           SKY/WX    TMP DP  RH WIND       PRES   REMARKS
FREDERICK*     MOSUNNY   93  68  43 NW7       30.04F HX  97
HAGERSTOWN APT MOSUNNY   91  70  49 W13       30.03F HX  96
WESTMINSTER*   SUNNY     91  70  49 W7        30.03F HX  97

$$

MDZ501>502-201800-
WESTERN MARYLAND

CITY           SKY/WX    TMP DP  RH WIND       PRES   REMARKS
OAKLAND*       MOSUNNY   77  66  69 W9        30.16S
CUMBERLAND*    NOT AVBL

$$

VAZ025>031-201800-
SHENANDOAH VALLEY

CITY           SKY/WX    TMP DP  RH WIND       PRES   REMARKS
WINCHESTER*    PTSUNNY   88  70  55 SE3       30.03F HX  92
FRONT ROYAL*   MOSUNNY   91  64  40 S6        30.03F HX  93
LURAY*         SUNNY     90  68  48 S6        30.05F HX  93
NEW MARKET*    MOSUNNY   91  65  41 SW3       30.03F HX  93
STAUNTON*      SUNNY     91  62  37 S8        30.09F HX  91
WAYNESBORO*    CLOUDY    89  65  45 SW5       30.11F HX  90

$$

WVZ021-048>050-054>055-201800-
EASTERN WEST VIRGINIA PANHANDLE

CITY           SKY/WX    TMP DP  RH WIND       PRES   REMARKS
MARTINSBURG    MOSUNNY   92  68  45 W12G17    30.02F HX  96
PETERSBURG*    CLOUDY    92  68  44 W9        30.06F HX  96

$$

VAZ036>039-050-201800-
CENTRAL FOOTHILLS

CITY           SKY/WX    TMP DP  RH WIND       PRES   REMARKS
CHARLOTTESVILL LGT RAIN  95  67  39 VRB5      30.04F HX  99
CULPEPER*      SUNNY     93  70  46 CALM      30.02F HX  99
ORANGE*        SUNNY     91  68  46 CALM      30.03F HX  95
GORDONSVILLE*  CLOUDY    94  70  45 W5        30.02F HX 100
WARRENTON*     SUNNY     95  63  34 W3        30.02F HX  95

$$

VAZ055>057-201800-
NORTH AND CENTRAL PIEDMONT

CITY           SKY/WX    TMP DP  RH WIND       PRES   REMARKS
FREDERICKSBRG* SUNNY     93  72  51 SW3       30.00F HX 100
STAFFORD*      SUNNY     93  72  50 W8        30.05F HX 100

$$

NCZ024-NYZ072-PAZ021-071-VAZ022-071-201800-
OTHER REGIONAL OBSERVATIONS

CITY           SKY/WX    TMP DP  RH WIND       PRES   REMARKS
NEW YORK CITY  PTSUNNY   90  68  48 CALM      29.97F HX  94
PHILADELPHIA   PTSUNNY   93  68  43 W12       29.97F HX  97
PITTSBURGH     PTSUNNY   86  65  49 SW13      30.05F
ROANOKE        MOSUNNY   94  62  34 W8        30.11F HX  94
RICHMOND       CLOUDY    93  68  43 SW6       30.02F HX  97
RALEIGH        PTSUNNY   93  65  39 CALM      30.06F HX  95

$$

ANZ530>537-201800-
MARINE OBSERVATIONS

STATION/POSITION TIME  TEMP    WIND        PRES
                       AIR SEA DIR/SP/G
                 (UTC) (F)     (DEG/KT/KT) (MB)
THOMAS PT LIGHT  1700   84 82  150/  7/  7   N/A
BALT KEY BRIDGE  1642   89     300/  6/  7 1015.1F
COVE POINT       1642   85     170/  7/  8 1016.5F
LEWISETTA        1642   86 84  100/  3/  3 1015.9F
SOLOMONS ISLAND  1642   86 84   80/  5/  7   N/A
PINEY POINT      1648          150/  3/  4   N/A

$$





USA.gov is the U.S. government's official web portal to all federal, state and local government web resources and services.